| time (UTC) | temp C | wind direction | speed KPH | gust KPH | rain 1hr cm | rain 24hr cm | rain mn cm | humidity % | barometer mb |
| 20260507221506 | 27 | 296 | 0.0 | 3.2 | 0.00 | 0.00 | 0.00 | 79 | 1016.3 |
| 20260507221002 | 27 | 223 | 3.2 | 6.4 | 0.00 | 0.00 | 0.00 | 79 | 1016.3 |
| 20260507220459 | 27 | 97 | 0.0 | 11.3 | 0.00 | 0.00 | 0.00 | 78 | 1016.3 |
| 20260507215956 | 27 | 21 | 6.4 | 12.9 | 0.00 | 0.00 | 0.00 | 77 | 1016.4 |
| 20260507215452 | 28 | 294 | 0.0 | 4.8 | 0.00 | 0.00 | 0.00 | 77 | 1016.4 |
| 20260507214950 | 28 | 172 | 8.0 | 16.1 | 0.00 | 0.00 | 0.00 | 76 | 1016.1 |
| 20260507214447 | 28 | 249 | 4.8 | 9.7 | 0.00 | 0.00 | 0.00 | 76 | 1016.1 |
| 20260507213943 | 28 | 111 | 9.7 | 12.9 | 0.00 | 0.00 | 0.00 | 74 | 1015.9 |
| 20260507213440 | 28 | 284 | 4.8 | 6.4 | 0.00 | 0.00 | 0.00 | 75 | 1015.8 |
| 20260507212937 | 28 | 131 | 6.4 | 14.5 | 0.00 | 0.00 | 0.00 | 74 | 1015.9 |
| 20260507212432 | 28 | 153 | 3.2 | 6.4 | 0.00 | 0.00 | 0.00 | 73 | 1015.9 |
| 20260507211930 | 28 | 136 | 6.4 | 12.9 | 0.00 | 0.00 | 0.00 | 74 | 1015.6 |
| 20260507211426 | 28 | 131 | 6.4 | 11.3 | 0.00 | 0.00 | 0.00 | 74 | 1015.7 |
| 20260507210923 | 28 | 202 | 4.8 | 11.3 | 0.00 | 0.00 | 0.00 | 74 | 1015.7 |
| 20260507210420 | 28 | 191 | 4.8 | 11.3 | 0.00 | 0.00 | 0.00 | 74 | 1015.6 |
| 20260507205917 | 28 | 171 | 8.0 | 11.3 | 0.00 | 0.00 | 0.00 | 76 | 1015.7 |
| 20260507205414 | 29 | 116 | 16.1 | 20.9 | 0.00 | 0.00 | 0.00 | 73 | 1015.6 |
| 20260507204910 | 29 | 284 | 6.4 | 12.9 | 0.00 | 0.00 | 0.00 | 72 | 1015.5 |
| 20260507204406 | 29 | 133 | 14.5 | 17.7 | 0.00 | 0.00 | 0.00 | 73 | 1015.7 |
| 20260507203904 | 29 | 189 | 4.8 | 12.9 | 0.00 | 0.00 | 0.00 | 72 | 1015.6 |
| 20260507203402 | 29 | 8 | 3.2 | 11.3 | 0.00 | 0.00 | 0.00 | 72 | 1015.7 |
| 20260507202858 | 30 | 211 | 6.4 | 14.5 | 0.00 | 0.00 | 0.00 | 72 | 1015.4 |
| 20260507202355 | 29 | 244 | 6.4 | 24.1 | 0.00 | 0.00 | 0.00 | 73 | 1015.6 |
| 20260507201850 | 30 | 273 | 3.2 | 9.7 | 0.00 | 0.00 | 0.00 | 71 | 1015.6 |
| 20260507201346 | 30 | 155 | 4.8 | 9.7 | 0.00 | 0.00 | 0.00 | 71 | 1015.7 |
| 20260507200842 | 30 | 175 | 4.8 | 9.7 | 0.00 | 0.00 | 0.00 | 70 | 1015.7 |
| 20260507200338 | 30 | 152 | 6.4 | 9.7 | 0.00 | 0.00 | 0.00 | 70 | 1015.8 |
| 20260507195835 | 30 | 211 | 3.2 | 9.7 | 0.00 | 0.00 | 0.00 | 71 | 1015.9 |
| 20260507195332 | 30 | 257 | 3.2 | 12.9 | 0.00 | 0.00 | 0.00 | 71 | 1015.9 |
| 20260507194829 | 30 | 163 | 8.0 | 16.1 | 0.00 | 0.00 | 0.00 | 69 | 1015.9 |
| 20260507194325 | 30 | 248 | 1.6 | 12.9 | 0.00 | 0.00 | 0.00 | 71 | 1015.8 |
| 20260507193822 | 30 | 74 | 6.4 | 17.7 | 0.00 | 0.00 | 0.00 | 71 | 1015.9 |
| 20260507193320 | 30 | 148 | 11.3 | 14.5 | 0.00 | 0.00 | 0.00 | 70 | 1015.9 |
| 20260507192814 | 30 | 192 | 3.2 | 14.5 | 0.00 | 0.00 | 0.00 | 70 | 1016.1 |
| 20260507192312 | 30 | 37 | 4.8 | 11.3 | 0.00 | 0.00 | 0.00 | 69 | 1015.9 |
| 20260507191808 | 30 | 173 | 4.8 | 9.7 | 0.00 | 0.00 | 0.00 | 69 | 1016.0 |
| 20260507191304 | 30 | 226 | 8.0 | 9.7 | 0.00 | 0.00 | 0.00 | 69 | 1015.9 |
| 20260507190801 | 30 | 284 | 3.2 | 14.5 | 0.00 | 0.00 | 0.00 | 71 | 1016.0 |
| 20260507190300 | 30 | 203 | 4.8 | 11.3 | 0.00 | 0.00 | 0.00 | 72 | 1016.1 |
| 20260507185758 | 30 | 179 | 9.7 | 17.7 | 0.00 | 0.00 | 0.00 | 69 | 1016.3 |
| 20260507185254 | 30 | 248 | 4.8 | 9.7 | 0.00 | 0.00 | 0.00 | 70 | 1016.1 |
| 20260507184752 | 30 | 250 | 3.2 | 14.5 | 0.00 | 0.00 | 0.00 | 69 | 1016.1 |
| 20260507184250 | 30 | 32 | 3.2 | 4.8 | 0.00 | 0.00 | 0.00 | 70 | 1016.0 |
| 20260507183747 | 30 | 252 | 9.7 | 24.1 | 0.00 | 0.00 | 0.00 | 68 | 1016.3 |
| 20260507183243 | 30 | 85 | 6.4 | 9.7 | 0.00 | 0.00 | 0.00 | 69 | 1016.2 |
| 20260507182741 | 30 | 189 | 6.4 | 17.7 | 0.00 | 0.00 | 0.00 | 70 | 1016.2 |
| 20260507182235 | 30 | 210 | 11.3 | 16.1 | 0.00 | 0.00 | 0.00 | 68 | 1016.4 |
| 20260507181733 | 30 | 354 | 9.7 | 12.9 | 0.00 | 0.00 | 0.00 | 69 | 1016.4 |
| 20260507181229 | 30 | 10 | 3.2 | 12.9 | 0.00 | 0.00 | 0.00 | 71 | 1016.3 |
| 20260507180726 | 30 | 164 | 6.4 | 9.7 | 0.00 | 0.00 | 0.00 | 70 | 1016.5 |
| 20260507180223 | 31 | 235 | 4.8 | 11.3 | 0.00 | 0.00 | 0.00 | 69 | 1016.5 |
| 20260507175718 | 31 | 244 | 8.0 | 12.9 | 0.00 | 0.00 | 0.00 | 69 | 1016.3 |
| 20260507175215 | 31 | 200 | 3.2 | 14.5 | 0.00 | 0.00 | 0.00 | 69 | 1016.5 |
| 20260507174713 | 31 | 230 | 6.4 | 11.3 | 0.00 | 0.00 | 0.00 | 67 | 1016.6 |
| 20260507174211 | 31 | 254 | 6.4 | 11.3 | 0.00 | 0.00 | 0.00 | 69 | 1016.8 |
| 20260507173708 | 31 | 242 | 1.6 | 12.9 | 0.00 | 0.00 | 0.00 | 69 | 1016.8 |
| 20260507173205 | 31 | 356 | 9.7 | 14.5 | 0.00 | 0.00 | 0.00 | 67 | 1016.8 |
| 20260507172701 | 31 | 139 | 4.8 | 11.3 | 0.00 | 0.00 | 0.00 | 66 | 1017.0 |
| 20260507172158 | 31 | 203 | 6.4 | 14.5 | 0.00 | 0.00 | 0.00 | 67 | 1017.0 |
| 20260507171658 | 30 | 227 | 6.4 | 12.9 | 0.00 | 0.00 | 0.00 | 68 | 1017.0 |
| 20260507171156 | 30 | 182 | 12.9 | 14.5 | 0.00 | 0.00 | 0.00 | 68 | 1017.2 |
| 20260507170653 | 31 | 214 | 6.4 | 14.5 | 0.00 | 0.00 | 0.00 | 67 | 1017.3 |
| 20260507170150 | 31 | 261 | 6.4 | 14.5 | 0.00 | 0.00 | 0.00 | 66 | 1017.4 |
| 20260507165645 | 31 | 278 | 4.8 | 12.9 | 0.00 | 0.00 | 0.00 | 67 | 1017.7 |
| 20260507165142 | 31 | 175 | 6.4 | 12.9 | 0.00 | 0.00 | 0.00 | 66 | 1017.5 |
| 20260507164637 | 31 | 228 | 6.4 | 11.3 | 0.00 | 0.00 | 0.00 | 64 | 1017.6 |
| 20260507164135 | 31 | 223 | 6.4 | 11.3 | 0.00 | 0.00 | 0.00 | 65 | 1017.6 |
| 20260507163632 | 31 | 254 | 4.8 | 9.7 | 0.00 | 0.00 | 0.00 | 65 | 1017.7 |
| 20260507163130 | 31 | 338 | 1.6 | 11.3 | 0.00 | 0.00 | 0.00 | 65 | 1017.9 |
| 20260507162625 | 30 | 140 | 4.8 | 11.3 | 0.00 | 0.00 | 0.00 | 66 | 1017.9 |
| 20260507162122 | 30 | 148 | 11.3 | 12.9 | 0.00 | 0.00 | 0.00 | 66 | 1018.0 |
| 20260507161618 | 30 | 166 | 9.7 | 17.7 | 0.00 | 0.00 | 0.00 | 65 | 1017.9 |
| 20260507161115 | 31 | 240 | 4.8 | 9.7 | 0.00 | 0.00 | 0.00 | 65 | 1018.0 |
| 20260507160612 | 30 | 249 | 6.4 | 11.3 | 0.00 | 0.00 | 0.00 | 67 | 1018.1 |
| 20260507160108 | 30 | 178 | 3.2 | 17.7 | 0.00 | 0.00 | 0.00 | 69 | 1018.2 |
| 20260507155603 | 31 | 192 | 3.2 | 14.5 | 0.00 | 0.00 | 0.00 | 66 | 1018.3 |
| 20260507155100 | 31 | 243 | 4.8 | 12.9 | 0.00 | 0.00 | 0.00 | 66 | 1018.2 |
| 20260507154557 | 31 | 265 | 1.6 | 14.5 | 0.00 | 0.00 | 0.00 | 65 | 1018.4 |
| 20260507154054 | 30 | 91 | 4.8 | 12.9 | 0.00 | 0.00 | 0.00 | 68 | 1018.0 |
| 20260507153551 | 30 | 285 | 4.8 | 6.4 | 0.00 | 0.00 | 0.00 | 68 | 1018.1 |
| 20260507153047 | 31 | 177 | 6.4 | 16.1 | 0.00 | 0.00 | 0.00 | 68 | 1018.2 |
| 20260507152543 | 31 | 270 | 0.0 | 4.8 | 0.00 | 0.00 | 0.00 | 68 | 1018.5 |
| 20260507152040 | 30 | 228 | 3.2 | 4.8 | 0.00 | 0.00 | 0.00 | 69 | 1018.2 |
| 20260507151536 | 30 | 201 | 0.0 | 9.7 | 0.00 | 0.00 | 0.00 | 70 | 1018.2 |
| 20260507151033 | 30 | 267 | 1.6 | 20.9 | 0.00 | 0.00 | 0.00 | 70 | 1018.6 |
| 20260507150530 | 30 | 161 | 1.6 | 4.8 | 0.00 | 0.00 | 0.00 | 70 | 1018.2 |
| 20260507150027 | 31 | 119 | 9.7 | 12.9 | 0.00 | 0.00 | 0.00 | 66 | 1018.4 |
| 20260507145521 | 31 | 261 | 3.2 | 11.3 | 0.00 | 0.00 | 0.00 | 68 | 1018.5 |
| 20260507145020 | 30 | 295 | 3.2 | 11.3 | 0.00 | 0.00 | 0.00 | 69 | 1018.4 |
| 20260507144516 | 30 | 204 | 6.4 | 6.4 | 0.00 | 0.00 | 0.00 | 69 | 1018.4 |
| 20260507144014 | 30 | 257 | 6.4 | 6.4 | 0.00 | 0.00 | 0.00 | 71 | 1018.5 |
| 20260507143511 | 30 | 122 | 9.7 | 11.3 | 0.00 | 0.00 | 0.00 | 71 | 1018.7 |
| 20260507143008 | 30 | 181 | 3.2 | 9.7 | 0.00 | 0.00 | 0.00 | 72 | 1018.7 |
| 20260507142503 | 30 | 172 | 9.7 | 12.9 | 0.00 | 0.00 | 0.00 | 72 | 1018.7 |
| 20260507142000 | 29 | 222 | 4.8 | 6.4 | 0.00 | 0.00 | 0.00 | 73 | 1018.6 |
| 20260507141456 | 30 | 183 | 8.0 | 11.3 | 0.00 | 0.00 | 0.00 | 72 | 1018.7 |
| 20260507140953 | 29 | 277 | 3.2 | 6.4 | 0.00 | 0.00 | 0.00 | 72 | 1018.6 |
| 20260507140450 | 28 | 240 | 3.2 | 4.8 | 0.00 | 0.00 | 0.00 | 74 | 1018.7 |
| 20260507135947 | 28 | 167 | 3.2 | 6.4 | 0.00 | 0.00 | 0.00 | 74 | 1018.9 |
| 20260507135444 | 29 | 227 | 1.6 | 12.9 | 0.00 | 0.00 | 0.00 | 72 | 1018.8 |
| 20260507134941 | 30 | 239 | 0.0 | 11.3 | 0.00 | 0.00 | 0.00 | 70 | 1018.8 |
| 20260507134438 | 30 | 140 | 3.2 | 9.7 | 0.00 | 0.00 | 0.00 | 69 | 1018.8 |
| 20260507133934 | 30 | 175 | 3.2 | 4.8 | 0.00 | 0.00 | 0.00 | 68 | 1019.0 |
| 20260507133430 | 30 | 127 | 9.7 | 12.9 | 0.00 | 0.00 | 0.00 | 67 | 1018.8 |
| 20260507132929 | 30 | 165 | 3.2 | 9.7 | 0.00 | 0.00 | 0.00 | 68 | 1018.8 |
| 20260507132424 | 30 | 153 | 1.6 | 9.7 | 0.00 | 0.00 | 0.00 | 68 | 1018.9 |
| 20260507131921 | 30 | 152 | 8.0 | 9.7 | 0.00 | 0.00 | 0.00 | 67 | 1018.9 |
| 20260507131418 | 30 | 141 | 1.6 | 3.2 | 0.00 | 0.00 | 0.00 | 66 | 1018.6 |
| 20260507130915 | 29 | 3 | 1.6 | 4.8 | 0.00 | 0.00 | 0.00 | 67 | 1018.5 |
| 20260507130412 | 29 | 336 | 1.6 | 4.8 | 0.00 | 0.00 | 0.00 | 69 | 1018.6 |
| 20260507125911 | 28 | 155 | 0.0 | 1.6 | 0.00 | 0.00 | 0.00 | 71 | 1018.4 |
| 20260507125409 | 28 | 156 | 4.8 | 6.4 | 0.00 | 0.00 | 0.00 | 71 | 1018.5 |
| 20260507124906 | 28 | 359 | 0.0 | 9.7 | 0.00 | 0.00 | 0.00 | 70 | 1018.4 |
| 20260507124401 | 28 | 139 | 0.0 | 9.7 | 0.00 | 0.00 | 0.00 | 72 | 1018.4 |
| 20260507123900 | 28 | 71 | 3.2 | 4.8 | 0.00 | 0.00 | 0.00 | 72 | 1018.3 |
| 20260507123357 | 28 | 213 | 3.2 | 12.9 | 0.00 | 0.00 | 0.00 | 73 | 1018.4 |
| 20260507122853 | 28 | 73 | 1.6 | 6.4 | 0.00 | 0.00 | 0.00 | 74 | 1018.2 |
| 20260507122349 | 28 | 215 | 4.8 | 11.3 | 0.00 | 0.00 | 0.00 | 74 | 1018.2 |
| 20260507121845 | 28 | 35 | 3.2 | 4.8 | 0.00 | 0.00 | 0.00 | 74 | 1018.4 |
| 20260507121341 | 28 | 135 | 1.6 | 9.7 | 0.00 | 0.00 | 0.00 | 76 | 1018.3 |
| 20260507120837 | 28 | 150 | 3.2 | 4.8 | 0.00 | 0.00 | 0.00 | 75 | 1018.4 |
| 20260507120334 | 28 | 65 | 0.0 | 1.6 | 0.00 | 0.00 | 0.00 | 76 | 1018.1 |
| 20260507115830 | 27 | 99 | 0.0 | 1.6 | 0.00 | 0.00 | 0.00 | 79 | 1018.0 |
| 20260507115326 | 27 | 130 | 1.6 | 4.8 | 0.00 | 0.00 | 0.00 | 79 | 1018.0 |
| 20260507114822 | 27 | 123 | 4.8 | 9.7 | 0.00 | 0.00 | 0.00 | 79 | 1018.0 |
| 20260507114319 | 27 | 133 | 3.2 | 4.8 | 0.00 | 0.00 | 0.00 | 80 | 1017.9 |
| 20260507113817 | 26 | 94 | 3.2 | 4.8 | 0.00 | 0.00 | 0.00 | 80 | 1017.7 |
| 20260507113313 | 27 | 96 | 1.6 | 3.2 | 0.00 | 0.00 | 0.00 | 80 | 1017.9 |
| 20260507112811 | 27 | 62 | 1.6 | 3.2 | 0.00 | 0.00 | 0.00 | 80 | 1017.7 |
| 20260507112308 | 27 | 122 | 1.6 | 3.2 | 0.00 | 0.00 | 0.00 | 79 | 1017.8 |
| 20260507111806 | 27 | 187 | 0.0 | 1.6 | 0.00 | 0.00 | 0.00 | 80 | 1017.7 |
| 20260507111302 | 26 | 104 | 0.0 | 4.8 | 0.00 | 0.00 | 0.00 | 81 | 1017.5 |
| 20260507110758 | 26 | 42 | 0.0 | 0.0 | 0.00 | 0.00 | 0.00 | 84 | 1017.6 |
| 20260507110255 | 25 | 153 | 0.0 | 1.6 | 0.00 | 0.00 | 0.00 | 85 | 1017.6 |
| 20260507105752 | 25 | 80 | 0.0 | 1.6 | 0.00 | 0.00 | 0.00 | 87 | 1017.4 |
| 20260507105247 | 25 | 18 | 0.0 | 3.2 | 0.00 | 0.00 | 0.00 | 88 | 1017.6 |
| 20260507104745 | 25 | 45 | 0.0 | 1.6 | 0.00 | 0.00 | 0.00 | 88 | 1017.5 |
| 20260507104241 | 25 | 98 | 1.6 | 3.2 | 0.00 | 0.00 | 0.00 | 88 | 1017.7 |
| 20260507103738 | 25 | 54 | 0.0 | 3.2 | 0.00 | 0.00 | 0.00 | 88 | 1017.5 |
| 20260507103234 | 25 | 70 | 0.0 | 1.6 | 0.00 | 0.00 | 0.00 | 88 | 1017.4 |
| 20260507102730 | 24 | 104 | 1.6 | 3.2 | 0.00 | 0.00 | 0.00 | 88 | 1017.5 |
| 20260507102227 | 24 | 114 | 0.0 | 3.2 | 0.00 | 0.00 | 0.00 | 89 | 1017.5 |
| 20260507101723 | 24 | 57 | 1.6 | 3.2 | 0.00 | 0.00 | 0.00 | 89 | 1017.5 |
| 20260507101219 | 24 | 75 | 3.2 | 4.8 | 0.00 | 0.00 | 0.00 | 89 | 1017.6 |
| 20260507100716 | 24 | 10 | 0.0 | 0.0 | 0.00 | 0.00 | 0.00 | 90 | 1017.4 |
| 20260507100214 | 23 | 348 | 0.0 | 0.0 | 0.00 | 0.00 | 0.00 | 90 | 1017.3 |
| 20260507095712 | 23 | 338 | 0.0 | 1.6 | 0.00 | 0.00 | 0.00 | 90 | 1017.2 |
| 20260507095208 | 23 | 344 | 0.0 | 3.2 | 0.00 | 0.00 | 0.00 | 90 | 1017.0 |
| 20260507094705 | 24 | 267 | 0.0 | 0.0 | 0.00 | 0.00 | 0.00 | 89 | 1017.0 |
| 20260507094202 | 24 | 242 | 0.0 | 1.6 | 0.00 | 0.00 | 0.00 | 89 | 1016.9 |
| 20260507093659 | 24 | 197 | 1.6 | 4.8 | 0.00 | 0.00 | 0.00 | 88 | 1016.8 |
| 20260507093158 | 24 | 42 | 0.0 | 3.2 | 0.00 | 0.00 | 0.00 | 88 | 1017.1 |
| 20260507092654 | 24 | 124 | 0.0 | 1.6 | 0.00 | 0.00 | 0.00 | 88 | 1017.0 |
| 20260507092151 | 24 | 85 | 0.0 | 1.6 | 0.00 | 0.00 | 0.00 | 89 | 1017.1 |
| 20260507091647 | 24 | 92 | 0.0 | 0.0 | 0.00 | 0.00 | 0.00 | 89 | 1017.2 |
| 20260507091144 | 24 | 100 | 0.0 | 0.0 | 0.00 | 0.00 | 0.00 | 88 | 1017.2 |
| 20260507090639 | 24 | 61 | 0.0 | 0.0 | 0.00 | 0.00 | 0.00 | 88 | 1017.1 |
| 20260507090137 | 24 | 148 | 1.6 | 1.6 | 0.00 | 0.00 | 0.00 | 88 | 1016.9 |
| 20260507085634 | 24 | 120 | 0.0 | 1.6 | 0.00 | 0.00 | 0.00 | 88 | 1017.0 |
| 20260507085130 | 24 | 164 | 0.0 | 1.6 | 0.00 | 0.00 | 0.00 | 88 | 1017.3 |
| 20260507084627 | 24 | 63 | 0.0 | 0.0 | 0.00 | 0.00 | 0.00 | 88 | 1017.2 |
| 20260507084124 | 24 | 146 | 0.0 | 1.6 | 0.00 | 0.00 | 0.00 | 88 | 1017.2 |
| 20260507083620 | 25 | 105 | 0.0 | 1.6 | 0.00 | 0.00 | 0.00 | 88 | 1017.2 |
| 20260507083118 | 25 | 71 | 0.0 | 0.0 | 0.00 | 0.00 | 0.00 | 87 | 1017.3 |
| 20260507082613 | 25 | 4 | 0.0 | 0.0 | 0.00 | 0.00 | 0.00 | 87 | 1017.2 |
| 20260507082110 | 25 | 74 | 0.0 | 3.2 | 0.00 | 0.00 | 0.00 | 87 | 1017.3 |
| 20260507081606 | 25 | 85 | 0.0 | 4.8 | 0.00 | 0.00 | 0.00 | 88 | 1017.1 |
| 20260507081103 | 25 | 100 | 1.6 | 3.2 | 0.00 | 0.00 | 0.00 | 88 | 1017.3 |
| 20260507080559 | 25 | 75 | 3.2 | 4.8 | 0.00 | 0.00 | 0.00 | 88 | 1017.2 |
| 20260507080055 | 25 | 115 | 0.0 | 1.6 | 0.00 | 0.00 | 0.00 | 88 | 1017.3 |
| 20260507075550 | 24 | 65 | 0.0 | 1.6 | 0.00 | 0.00 | 0.00 | 88 | 1017.2 |
| 20260507075047 | 24 | 336 | 0.0 | 0.0 | 0.00 | 0.00 | 0.00 | 88 | 1017.2 |
| 20260507074544 | 24 | 52 | 0.0 | 0.0 | 0.00 | 0.00 | 0.00 | 88 | 1017.0 |
| 20260507074043 | 24 | 163 | 0.0 | 1.6 | 0.00 | 0.00 | 0.00 | 88 | 1017.3 |
| 20260507073538 | 24 | 170 | 0.0 | 0.0 | 0.00 | 0.00 | 0.00 | 88 | 1017.2 |
| 20260507073035 | 25 | 146 | 0.0 | 1.6 | 0.00 | 0.00 | 0.00 | 88 | 1017.4 |
| 20260507072533 | 25 | 136 | 0.0 | 1.6 | 0.00 | 0.00 | 0.00 | 87 | 1017.3 |
| 20260507072030 | 25 | 140 | 0.0 | 1.6 | 0.00 | 0.00 | 0.00 | 87 | 1017.4 |
| 20260507071527 | 25 | 141 | 0.0 | 0.0 | 0.00 | 0.00 | 0.00 | 87 | 1017.3 |
| 20260507071024 | 25 | 38 | 0.0 | 0.0 | 0.00 | 0.00 | 0.00 | 87 | 1017.4 |
| 20260507070521 | 25 | 42 | 0.0 | 0.0 | 0.00 | 0.00 | 0.00 | 87 | 1017.5 |
| 20260507070018 | 25 | 102 | 0.0 | 0.0 | 0.00 | 0.00 | 0.00 | 87 | 1017.5 |
| 20260507065514 | 24 | 194 | 0.0 | 3.2 | 0.00 | 0.00 | 0.00 | 87 | 1017.7 |
| 20260507065011 | 24 | 69 | 3.2 | 9.7 | 0.00 | 0.00 | 0.00 | 87 | 1017.5 |
| 20260507064509 | 24 | 99 | 1.6 | 3.2 | 0.00 | 0.00 | 0.00 | 87 | 1017.6 |
| 20260507064007 | 25 | 108 | 0.0 | 4.8 | 0.00 | 0.00 | 0.00 | 86 | 1017.5 |
| 20260507063504 | 25 | 52 | 0.0 | 1.6 | 0.00 | 0.00 | 0.00 | 87 | 1017.7 |
| 20260507063001 | 25 | 57 | 0.0 | 1.6 | 0.00 | 0.00 | 0.00 | 87 | 1017.8 |
| 20260507062458 | 25 | 83 | 1.6 | 3.2 | 0.00 | 0.00 | 0.00 | 87 | 1017.8 |
| 20260507061955 | 25 | 24 | 0.0 | 1.6 | 0.00 | 0.00 | 0.00 | 87 | 1018.0 |
| 20260507061453 | 25 | 60 | 0.0 | 0.0 | 0.00 | 0.00 | 0.00 | 87 | 1017.9 |
| 20260507060952 | 25 | 141 | 0.0 | 0.0 | 0.00 | 0.00 | 0.00 | 87 | 1018.0 |
| 20260507060448 | 25 | 173 | 0.0 | 3.2 | 0.00 | 0.00 | 0.00 | 87 | 1018.0 |
| 20260507055944 | 25 | 215 | 3.2 | 3.2 | 0.00 | 0.00 | 0.00 | 87 | 1017.8 |
| 20260507055440 | 25 | 149 | 1.6 | 3.2 | 0.00 | 0.00 | 0.00 | 87 | 1018.3 |
| 20260507054937 | 25 | 177 | 0.0 | 0.0 | 0.00 | 0.00 | 0.00 | 87 | 1018.2 |
| 20260507054433 | 25 | 199 | 0.0 | 1.6 | 0.00 | 0.00 | 0.00 | 87 | 1018.3 |
| 20260507053930 | 25 | 171 | 0.0 | 3.2 | 0.00 | 0.00 | 0.00 | 87 | 1018.3 |
| 20260507053428 | 25 | 159 | 0.0 | 1.6 | 0.00 | 0.00 | 0.00 | 87 | 1018.4 |
| 20260507052926 | 25 | 185 | 0.0 | 0.0 | 0.00 | 0.00 | 0.00 | 87 | 1018.3 |
| 20260507052423 | 25 | 191 | 0.0 | 1.6 | 0.00 | 0.00 | 0.00 | 87 | 1018.6 |
| 20260507051920 | 25 | 197 | 0.0 | 0.0 | 0.00 | 0.00 | 0.00 | 87 | 1018.7 |
| 20260507051418 | 25 | 120 | 1.6 | 4.8 | 0.00 | 0.00 | 0.00 | 87 | 1018.6 |
| 20260507050915 | 25 | 224 | 1.6 | 3.2 | 0.00 | 0.00 | 0.00 | 86 | 1018.7 |
| 20260507050411 | 25 | 167 | 1.6 | 1.6 | 0.00 | 0.00 | 0.00 | 86 | 1018.5 |
| 20260507045908 | 25 | 196 | 1.6 | 1.6 | 0.00 | 0.00 | 0.00 | 85 | 1018.8 |
| 20260507045405 | 25 | 51 | 0.0 | 1.6 | 0.00 | 0.00 | 0.00 | 85 | 1018.8 |
| 20260507044902 | 25 | 296 | 0.0 | 1.6 | 0.00 | 0.00 | 0.00 | 85 | 1019.1 |
| 20260507044358 | 25 | 69 | 0.0 | 3.2 | 0.00 | 0.00 | 0.00 | 85 | 1019.1 |
| 20260507043855 | 25 | 69 | 1.6 | 1.6 | 0.00 | 0.00 | 0.00 | 85 | 1019.0 |
| 20260507043351 | 25 | 93 | 1.6 | 3.2 | 0.00 | 0.00 | 0.00 | 84 | 1019.3 |
| 20260507042847 | 25 | 26 | 0.0 | 3.2 | 0.00 | 0.00 | 0.00 | 84 | 1019.2 |
| 20260507042344 | 25 | 42 | 0.0 | 1.6 | 0.00 | 0.00 | 0.00 | 84 | 1019.4 |
| 20260507041840 | 25 | 55 | 1.6 | 3.2 | 0.00 | 0.00 | 0.00 | 84 | 1019.5 |
| 20260507041337 | 25 | 32 | 0.0 | 1.6 | 0.00 | 0.00 | 0.00 | 84 | 1019.5 |
| 20260507040834 | 25 | 79 | 1.6 | 1.6 | 0.00 | 0.00 | 0.00 | 83 | 1019.6 |
| 20260507040330 | 25 | 167 | 0.0 | 3.2 | 0.00 | 0.00 | 0.00 | 83 | 1019.6 |
| 20260507035826 | 25 | 143 | 1.6 | 1.6 | 0.00 | 0.00 | 0.00 | 83 | 1019.6 |
| 20260507035322 | 25 | 142 | 0.0 | 1.6 | 0.00 | 0.00 | 0.00 | 83 | 1019.6 |
| 20260507034820 | 25 | 52 | 0.0 | 0.0 | 0.00 | 0.00 | 0.00 | 82 | 1019.6 |
| 20260507034316 | 25 | 81 | 0.0 | 1.6 | 0.00 | 0.00 | 0.00 | 82 | 1019.7 |
| 20260507033814 | 25 | 90 | 1.6 | 1.6 | 0.00 | 0.00 | 0.00 | 82 | 1019.6 |
| 20260507033312 | 25 | 66 | 0.0 | 3.2 | 0.00 | 0.00 | 0.00 | 82 | 1019.4 |
| 20260507032809 | 25 | 82 | 0.0 | 1.6 | 0.00 | 0.00 | 0.00 | 81 | 1019.7 |
| 20260507032306 | 25 | 147 | 1.6 | 3.2 | 0.00 | 0.00 | 0.00 | 81 | 1019.7 |
| 20260507031801 | 25 | 90 | 0.0 | 1.6 | 0.00 | 0.00 | 0.00 | 81 | 1019.6 |
| 20260507031258 | 25 | 76 | 0.0 | 3.2 | 0.00 | 0.00 | 0.00 | 81 | 1019.7 |
| 20260507030755 | 26 | 95 | 3.2 | 3.2 | 0.00 | 0.00 | 0.00 | 80 | 1019.5 |
| 20260507030252 | 26 | 72 | 0.0 | 3.2 | 0.00 | 0.00 | 0.00 | 80 | 1019.6 |
| 20260507025749 | 26 | 84 | 3.2 | 3.2 | 0.00 | 0.00 | 0.00 | 79 | 1019.6 |
| 20260507025246 | 26 | 72 | 1.6 | 3.2 | 0.00 | 0.00 | 0.00 | 79 | 1019.9 |
| 20260507024745 | 26 | 69 | 0.0 | 3.2 | 0.00 | 0.00 | 0.00 | 79 | 1019.8 |
| 20260507024241 | 26 | 102 | 3.2 | 3.2 | 0.00 | 0.00 | 0.00 | 78 | 1020.0 |
| 20260507023737 | 26 | 30 | 0.0 | 1.6 | 0.00 | 0.00 | 0.00 | 78 | 1020.0 |
| 20260507023234 | 26 | 53 | 0.0 | 1.6 | 0.00 | 0.00 | 0.00 | 77 | 1019.8 |
| 20260507022732 | 26 | 136 | 0.0 | 1.6 | 0.00 | 0.00 | 0.00 | 78 | 1019.7 |
| 20260507022227 | 26 | 55 | 1.6 | 3.2 | 0.00 | 0.00 | 0.00 | 77 | 1019.7 |
| 20260507021724 | 26 | 54 | 1.6 | 3.2 | 0.00 | 0.00 | 0.00 | 77 | 1019.4 |
| 20260507021219 | 26 | 58 | 1.6 | 3.2 | 0.00 | 0.00 | 0.00 | 77 | 1019.7 |
| 20260507020718 | 26 | 75 | 0.0 | 3.2 | 0.00 | 0.00 | 0.00 | 76 | 1019.6 |
| 20260507020214 | 26 | 31 | 0.0 | 1.6 | 0.00 | 0.00 | 0.00 | 76 | 1019.4 |
| 20260507015712 | 26 | 4 | 0.0 | 0.0 | 0.00 | 0.00 | 0.00 | 76 | 1019.3 |
| 20260507015209 | 26 | 72 | 1.6 | 3.2 | 0.00 | 0.00 | 0.00 | 75 | 1019.2 |
| 20260507014705 | 26 | 12 | 0.0 | 0.0 | 0.00 | 0.00 | 0.00 | 75 | 1019.4 |
| 20260507014201 | 26 | 67 | 0.0 | 1.6 | 0.00 | 0.00 | 0.00 | 75 | 1019.1 |
| 20260507013658 | 26 | 79 | 1.6 | 3.2 | 0.00 | 0.00 | 0.00 | 75 | 1019.1 |
| 20260507013156 | 26 | 239 | 0.0 | 1.6 | 0.00 | 0.00 | 0.00 | 75 | 1019.0 |
| 20260507012653 | 26 | 12 | 3.2 | 3.2 | 0.00 | 0.00 | 0.00 | 75 | 1019.0 |
| 20260507012148 | 26 | 196 | 6.4 | 9.7 | 0.00 | 0.00 | 0.00 | 74 | 1019.1 |
| 20260507011647 | 26 | 206 | 1.6 | 3.2 | 0.00 | 0.00 | 0.00 | 74 | 1018.9 |
| 20260507011142 | 26 | 309 | 1.6 | 3.2 | 0.00 | 0.00 | 0.00 | 74 | 1018.9 |
| 20260507010637 | 26 | 176 | 3.2 | 9.7 | 0.00 | 0.00 | 0.00 | 74 | 1019.1 |
| 20260507010133 | 26 | 208 | 3.2 | 4.8 | 0.00 | 0.00 | 0.00 | 74 | 1018.9 |
| 20260507005631 | 27 | 207 | 3.2 | 6.4 | 0.00 | 0.00 | 0.00 | 73 | 1018.7 |
| 20260507005127 | 27 | 240 | 6.4 | 9.7 | 0.00 | 0.00 | 0.00 | 73 | 1018.8 |
| 20260507004624 | 27 | 182 | 3.2 | 4.8 | 0.00 | 0.00 | 0.00 | 72 | 1018.7 |
| 20260507004122 | 27 | 31 | 0.0 | 3.2 | 0.00 | 0.00 | 0.00 | 72 | 1018.7 |
| 20260507003618 | 27 | 50 | 1.6 | 3.2 | 0.00 | 0.00 | 0.00 | 71 | 1018.5 |
| 20260507003113 | 27 | 125 | 3.2 | 4.8 | 0.00 | 0.00 | 0.00 | 71 | 1018.7 |
| 20260507002609 | 27 | 99 | 1.6 | 4.8 | 0.00 | 0.00 | 0.00 | 71 | 1018.4 |
| 20260507002105 | 27 | 90 | 3.2 | 4.8 | 0.00 | 0.00 | 0.00 | 71 | 1018.5 |
| 20260507001602 | 27 | 42 | 1.6 | 6.4 | 0.00 | 0.00 | 0.00 | 71 | 1018.3 |
| 20260507001100 | 27 | 59 | 4.8 | 6.4 | 0.00 | 0.00 | 0.00 | 71 | 1018.3 |
| 20260507000556 | 27 | 144 | 1.6 | 6.4 | 0.00 | 0.00 | 0.00 | 71 | 1018.3 |
| 20260507000051 | 27 | 10 | 1.6 | 4.8 | 0.00 | 0.00 | 0.00 | 71 | 1018.1 |
| 20260506235549 | 27 | 33 | 3.2 | 4.8 | 0.00 | 0.00 | 0.00 | 71 | 1018.0 |
| 20260506235044 | 27 | 42 | 3.2 | 4.8 | 0.00 | 0.00 | 0.00 | 71 | 1018.1 |
| 20260506234542 | 27 | 2 | 1.6 | 4.8 | 0.00 | 0.00 | 0.00 | 71 | 1018.0 |
| 20260506234039 | 27 | 21 | 0.0 | 4.8 | 0.00 | 0.00 | 0.00 | 71 | 1017.9 |
| 20260506233536 | 28 | 94 | 1.6 | 6.4 | 0.00 | 0.00 | 0.00 | 70 | 1017.9 |
| 20260506233032 | 28 | 26 | 3.2 | 3.2 | 0.00 | 0.00 | 0.00 | 70 | 1017.8 |
| 20260506232529 | 28 | 49 | 1.6 | 1.6 | 0.00 | 0.00 | 0.00 | 70 | 1017.6 |
| 20260506232024 | 28 | 195 | 1.6 | 4.8 | 0.00 | 0.00 | 0.00 | 69 | 1017.7 |
| 20260506231522 | 28 | 53 | 1.6 | 4.8 | 0.00 | 0.00 | 0.00 | 69 | 1017.4 |
| 20260506231020 | 28 | 36 | 1.6 | 3.2 | 0.00 | 0.00 | 0.00 | 68 | 1017.6 |
| 20260506230516 | 28 | 187 | 1.6 | 3.2 | 0.00 | 0.00 | 0.00 | 68 | 1017.3 |
| 20260506230014 | 28 | 206 | 1.6 | 9.7 | 0.00 | 0.00 | 0.00 | 67 | 1017.4 |
| 20260506225511 | 28 | 51 | 1.6 | 6.4 | 0.00 | 0.00 | 0.00 | 67 | 1017.2 |
| 20260506225007 | 28 | 81 | 3.2 | 6.4 | 0.00 | 0.00 | 0.00 | 66 | 1017.2 |
| 20260506224503 | 28 | 95 | 3.2 | 9.7 | 0.00 | 0.00 | 0.00 | 65 | 1017.1 |
| 20260506224000 | 29 | 26 | 3.2 | 4.8 | 0.00 | 0.00 | 0.00 | 64 | 1017.0 |
| 20260506223456 | 29 | 354 | 0.0 | 3.2 | 0.00 | 0.00 | 0.00 | 64 | 1016.9 |
| 20260506222953 | 29 | 51 | 4.8 | 6.4 | 0.00 | 0.00 | 0.00 | 63 | 1016.9 |
| 20260506222450 | 30 | 229 | 0.0 | 6.4 | 0.00 | 0.00 | 0.00 | 62 | 1016.8 |
| 20260506221946 | 30 | 32 | 0.0 | 3.2 | 0.00 | 0.00 | 0.00 | 62 | 1016.5 |